General Aviation Weather

Text Reports

Enter one or more of the following location identifiers separated by a space:

Zip Code, Four-Character ICAO or Three-Character IATA airport codes.

METAR - Aviation Routine Weather Report
KHWY - Warrenton, Virginia
Updated at 10:55 AM GMT on December 29, 2014 (5:55 AM EST):
METAR KHWY 291055Z AUTO 05004KT 10SM -RA OVC037 05/04 A3016 RMK AO2 T00520041
TAF - Terminal Area Forecast
KHWY - Warrenton, Virginia
Updated at 10:55 AM GMT on December 29, 2014 (5:55 AM EST):
No TAF is currently available for this location.
Decoded:
No decoded TAF is available.
PIREP - Pilot Weather Report
KHWY - Warrenton, Virginia
Updated at 10:55 AM GMT on December 29, 2014 (5:55 AM EST):
No PIREP is currently available for this location.
AIRMET - Airmens Meteorological Information
KHWY - Warrenton, Virginia
Updated at 10:55 AM GMT on December 29, 2014 (5:55 AM EST):
No AIRMET is currently available for this location.
SIGMET - Significant Meteorological Information
KHWY - Warrenton, Virginia
Updated at 10:55 AM GMT on December 29, 2014 (5:55 AM EST):
No SIGMET is currently available for this location.
NOTAM - Notice to Airmen
KHWY - Warrenton, Virginia
Updated at 10:55 AM GMT on December 29, 2014 (5:55 AM EST):
No NOTAM is currently available for this location.
Forecast Area
KHWY - Warrenton, Virginia
Updated at 10:55 AM GMT on December 29, 2014 (5:55 AM EST):
No NOTAM is currently available for this location.
Aviation Weather Maps